Weather History for Aurora, OR

Change the Weather History Date:

Sunday, April 6, 2014

  Actual Average Record
Temperature  
Mean Temperature 56 °F -  
Max Temperature 64 °F - 77 °F (2007)
Min Temperature 47 °F - 32 °F (1997)
Degree Days  
Heating Degree Days 9    
Month to date heating degree days 84  
Since 1 July heating degree days 4035  
Cooling Degree Days 0    
Month to date cooling degree days 0  
Year to date cooling degree days 0  
Growing Degree Days 6 (Base 50)    
Moisture  
Dew Point 49 °F    
Average Humidity 78    
Maximum Humidity 100    
Minimum Humidity 56    
Precipitation  
Precipitation 0.01 in - 1.02 in (1963)
Month to date precipitation 0.61  
Year to date precipitation 16.02  
Sea Level Pressure  
Sea Level Pressure 30.27 in    
Wind  
Wind Speed 6 mph (SSW)    
Max Wind Speed 14 mph    
Max Gust Speed 19 mph    
Visibility 10 miles    
Events Rain    
T = Trace of Precipitation, MM = Missing Value Source: NWS Daily Summary

Daily Weather History Graph

Daily Weather History Graph

Search for Another Location

Airport:

Trip Planner

Search our weather history database for the weather conditions in past years. The results will help you decide how hot, cold, wet, or windy it might be!

Date:

Astronomy

Apr. 06, 2014 Rise Set
Actual Time 6:42 AM PDT 7:45 PM PDT
Civil Twilight 6:11 AM PDT 8:15 PM PDT
Nautical Twilight 5:35 AM PDT 8:51 PM PDT
Astronomical Twilight 4:58 AM PDT 9:30 PM PDT
Moon 11:39 AM PDT (4/6) 1:54 AM PDT (4/6)
Length of Visible Light 14h 03m
Length of Day
13h 03m
Waxing Crescent, 45% of the Moon is Illuminated
Apr 6
Waxing Crescent
Apr 7
First Quarter
Apr 15
Full
Apr 22
Last Quarter
Apr 28
New

Hourly Weather History & Observations

Time (PDT) Temp. Dew Point Humidity Pressure Visibility Wind Dir Wind Speed Gust Speed Precip Events Conditions
12:53 AM 48.0 °F 46.0 °F 93% 30.21 in 10.0 mi South 5.8 mph - 0.01 in Rain Light Rain
1:53 AM 48.0 °F 46.9 °F 96% 30.20 in 10.0 mi South 3.5 mph - 0.01 in   Overcast
2:22 AM 48.0 °F 48.0 °F 100% 30.19 in 10.0 mi South 3.5 mph - N/A   Overcast
2:53 AM 48.9 °F 48.0 °F 97% 30.19 in 10.0 mi South 5.8 mph - N/A   Overcast
3:21 AM 50.0 °F 48.0 °F 93% 30.19 in 10.0 mi SSW 6.9 mph - N/A   Overcast
3:53 AM 51.1 °F 48.9 °F 92% 30.19 in 10.0 mi SSW 9.2 mph - N/A   Overcast
4:53 AM 51.1 °F 48.9 °F 92% 30.20 in 10.0 mi Variable 6.9 mph - N/A   Overcast
5:53 AM 51.1 °F 48.9 °F 92% 30.22 in 10.0 mi SSW 9.2 mph - N/A   Overcast
6:38 AM 51.1 °F 48.9 °F 92% 30.23 in 10.0 mi South 6.9 mph - N/A   Overcast
6:53 AM 51.1 °F 48.9 °F 92% 30.23 in 10.0 mi South 6.9 mph - N/A   Overcast
7:53 AM 52.0 °F 50.0 °F 93% 30.25 in 10.0 mi South 6.9 mph - N/A   Overcast
8:07 AM 52.0 °F 50.0 °F 93% 30.24 in 10.0 mi South 9.2 mph - N/A   Overcast
8:30 AM 52.0 °F 50.0 °F 93% 30.25 in 10.0 mi South 11.5 mph - N/A   Overcast
8:53 AM 52.0 °F 50.0 °F 93% 30.27 in 10.0 mi South 8.1 mph - N/A   Overcast
9:09 AM 52.0 °F 50.0 °F 93% 30.27 in 10.0 mi South 10.4 mph - N/A   Overcast
9:24 AM 53.1 °F 51.1 °F 93% 30.27 in 9.0 mi South 10.4 mph - N/A   Overcast
9:53 AM 53.1 °F 52.0 °F 96% 30.28 in 10.0 mi South 9.2 mph - N/A   Overcast
10:53 AM 55.0 °F 52.0 °F 89% 30.31 in 10.0 mi SSW 8.1 mph - N/A   Overcast
11:51 AM 55.4 °F 50.0 °F 82% 30.31 in 10.0 mi SSW 9.2 mph 17.3 mph N/A   Overcast
11:53 AM 55.9 °F 50.0 °F 80% 30.31 in 10.0 mi SSW 8.1 mph - N/A   Overcast
12:44 PM 57.9 °F 52.0 °F 81% 30.31 in 10.0 mi SW 8.1 mph - 0.00 in   Overcast
12:53 PM 57.9 °F 51.1 °F 78% 30.31 in 10.0 mi SW 9.2 mph - 0.00 in   Overcast
1:53 PM 61.0 °F 50.0 °F 67% 30.31 in 10.0 mi SW 11.5 mph - N/A   Overcast
2:07 PM 60.1 °F 51.1 °F 72% 30.31 in 10.0 mi SSW 5.8 mph - N/A   Overcast
2:40 PM 61.0 °F 50.0 °F 67% 30.31 in 10.0 mi Variable 6.9 mph - N/A   Overcast
2:53 PM 61.0 °F 50.0 °F 67% 30.31 in 10.0 mi South 8.1 mph - N/A   Overcast
3:53 PM 64.0 °F 50.0 °F 60% 30.30 in 10.0 mi SSW 13.8 mph 18.4 mph N/A   Mostly Cloudy
4:53 PM 64.0 °F 48.9 °F 58% 30.29 in 10.0 mi SSW 6.9 mph - N/A   Mostly Cloudy
5:53 PM 63.0 °F 48.0 °F 58% 30.29 in 10.0 mi WSW 8.1 mph - N/A   Partly Cloudy
6:53 PM 62.1 °F 48.0 °F 60% 30.29 in 10.0 mi WSW 6.9 mph - N/A   Clear
7:53 PM 59.0 °F 48.0 °F 67% 30.29 in 10.0 mi Calm Calm - N/A   Clear
8:53 PM 55.0 °F 48.0 °F 77% 30.30 in 10.0 mi Calm Calm - N/A   Clear
9:53 PM 52.0 °F 48.0 °F 86% 30.32 in 10.0 mi North 4.6 mph - N/A   Mostly Cloudy
10:53 PM 50.0 °F 46.9 °F 89% 30.32 in 10.0 mi ESE 3.5 mph - N/A   Clear
11:53 PM 48.9 °F 46.9 °F 93% 30.32 in 10.0 mi Calm Calm - N/A   Clear